+ View the NASA Portal
+ Center for Near-Earth Object Studies
IMPORTANT:
The SSD Announcement email list is now available. Major changes are coming in the near future, including possible hostname and/or URL changes. To be notified of such changes, subscribe to this email list.
Please visit
this page
for more details.
Don't show this message again
JPL Small-Body Database Browser
Search:
[
help
]
312412 (2008 FK106)
Classification:
Main-belt Asteroid
SPK-ID:
2312412
[
Ephemeris
|
Orbit Diagram
|
Orbital Elements
|
Mission Design
|
Physical Parameters
|
Discovery Circumstances
|
Close-Approach Data
]
[ show orbit diagram ]
Orbital Elements at Epoch 2458600.5 (2019-Apr-27.0) TDB
Reference:
JPL 14
(heliocentric ecliptic J2000)
Element
Value
Uncertainty (1-sigma)
Units
e
.05101866373230422
5.4472e-08
a
2.900100991462184
3.511e-08
au
q
2.752141714189053
1.4535e-07
au
i
6.534450193863361
6.7478e-06
deg
node
147.8298730527852
4.5427e-05
deg
peri
110.3870959507809
8.478e-05
deg
M
35.26665911329635
6.9881e-05
deg
t
p
2458423.782349547782
(2018-Nov-01.28234955)
0.00034953
TDB
period
1803.923472263721
4.94
3.2759e-05
8.969e-08
d
yr
n
.199565006795017
3.624e-09
deg/d
Q
3.048060268735316
3.6901e-08
au
Orbit Determination Parameters
# obs. used (total)
182
data-arc span
5989 days (16.40 yr)
first obs. used
2003-04-07
last obs. used
2019-08-30
planetary ephem.
DE431
SB-pert. ephem.
SB431-N16
condition code
0
norm. resid. RMS
.60582
source
ORB
producer
Otto Matic
solution date
2019-Sep-24 06:01:51
Additional Information
Earth MOID
= 1.74513 au
Jupiter MOID
= 1.99415 au
T_jup
= 3.276
[ show covariance matrix ]
[
Ephemeris
|
Orbit Diagram
|
Orbital Elements
|
Mission Design
|
Physical Parameters
|
Discovery Circumstances
|
Close-Approach Data
]
Physical Parameter Table
Parameter
Symbol
Value
Units
Sigma
Reference
Notes
absolute magnitude
H
16.4
n/a
MPO450244
312412 (2008 FK106)
Discovered 2003-Apr-07 by Spacewatch at Kitt Peak
Reference:
20120109/Numbers.arc
Last Updated:
2012-01-11
[ show close-approach data ]
Alternate Designations
2008 FK106
= 2003 GP24
[
Ephemeris
|
Orbit Diagram
|
Orbital Elements
|
Mission Design
|
Physical Parameters
|
Discovery Circumstances
|
Close-Approach Data
]
2019-Dec-14 10:52 UT
(server date/time)
Site Manager:
Ryan S. Park
Webmaster
:
Alan B. Chamberlin